#Datum;Uhrzeit;WR;Pac;DaySum;Status;WR;Pac;DaySum;Status;Pdc1;Udc;Temp;WR;Pac;DaySum;Status;Pdc1;Udc;Temp;WR;Pac;DaySum;Status;Pdc1;Udc;Temp;WR;Pac;DaySum;Status;Pdc1;Pdc2;Udc1;Udc2;Temp;WR;Pac;DaySum;Status;Pdc1;Pdc2;Udc1;Udc2;Temp;WR;Pac;DaySum;Status;Pdc1;Udc;Temp;WR;Pac;DaySum;Status;Pdc1;Udc;Temp;WR;Pac;DaySum;Status;Pdc1;Udc;Temp
06.01.19;23:55:00;1;752;11620;0;2;0;4720;0;0;0;0;3;0;3201;0;0;0;0;4;0;3345;0;0;0;0;5;0;4765;0;0;0;0;0;0;6;0;8363;0;0;0;0;0;0;7;0;6200;0;0;0;0;8;0;6143;0;0;0;0;9;0;3311;0;0;0;0
06.01.19;23:50:00;1;343;11564;0;2;0;4720;0;0;0;0;3;0;3201;0;0;0;0;4;0;3345;0;0;0;0;5;0;4765;0;0;0;0;0;0;6;0;8363;0;0;0;0;0;0;7;0;6200;0;0;0;0;8;0;6143;0;0;0;0;9;0;3311;0;0;0;0
06.01.19;23:45:00;1;344;11536;0;2;0;4720;0;0;0;0;3;0;3201;0;0;0;0;4;0;3345;0;0;0;0;5;0;4765;0;0;0;0;0;0;6;0;8363;0;0;0;0;0;0;7;0;6200;0;0;0;0;8;0;6143;0;0;0;0;9;0;3311;0;0;0;0
06.01.19;23:40:00;1;351;11507;0;2;0;4720;0;0;0;0;3;0;3201;0;0;0;0;4;0;3345;0;0;0;0;5;0;4765;0;0;0;0;0;0;6;0;8363;0;0;0;0;0;0;7;0;6200;0;0;0;0;8;0;6143;0;0;0;0;9;0;3311;0;0;0;0
06.01.19;23:35:00;1;469;11477;0;2;0;4720;0;0;0;0;3;0;3201;0;0;0;0;4;0;3345;0;0;0;0;5;0;4765;0;0;0;0;0;0;6;0;8363;0;0;0;0;0;0;7;0;6200;0;0;0;0;8;0;6143;0;0;0;0;9;0;3311;0;0;0;0
06.01.19;23:30:00;1;382;11439;0;2;0;4720;0;0;0;0;3;0;3201;0;0;0;0;4;0;3345;0;0;0;0;5;0;4765;0;0;0;0;0;0;6;0;8363;0;0;0;0;0;0;7;0;6200;0;0;0;0;8;0;6143;0;0;0;0;9;0;3311;0;0;0;0
06.01.19;23:25:00;1;372;11407;0;2;0;4720;0;0;0;0;3;0;3201;0;0;0;0;4;0;3345;0;0;0;0;5;0;4765;0;0;0;0;0;0;6;0;8363;0;0;0;0;0;0;7;0;6200;0;0;0;0;8;0;6143;0;0;0;0;9;0;3311;0;0;0;0
06.01.19;23:20:00;1;551;11372;0;2;0;4720;0;0;0;0;3;0;3201;0;0;0;0;4;0;3345;0;0;0;0;5;0;4765;0;0;0;0;0;0;6;0;8363;0;0;0;0;0;0;7;0;6200;0;0;0;0;8;0;6143;0;0;0;0;9;0;3311;0;0;0;0
06.01.19;23:15:00;1;357;11320;0;2;0;4720;0;0;0;0;3;0;3201;0;0;0;0;4;0;3345;0;0;0;0;5;0;4765;0;0;0;0;0;0;6;0;8363;0;0;0;0;0;0;7;0;6200;0;0;0;0;8;0;6143;0;0;0;0;9;0;3311;0;0;0;0
06.01.19;23:10:00;1;351;11290;0;2;0;4720;0;0;0;0;3;0;3201;0;0;0;0;4;0;3345;0;0;0;0;5;0;4765;0;0;0;0;0;0;6;0;8363;0;0;0;0;0;0;7;0;6200;0;0;0;0;8;0;6143;0;0;0;0;9;0;3311;0;0;0;0
06.01.19;23:07:00;1;285;11273;0;2;0;4720;0;0;0;0;3;0;3201;0;0;0;0;4;0;3345;0;0;0;0;5;0;4765;0;0;0;0;0;0;6;0;8363;0;0;0;0;0;0;7;0;6200;0;0;0;0;8;0;6143;0;0;0;0;9;0;3311;0;0;0;0
06.01.19;23:00:00;1;444;11228;0;2;0;4720;0;0;0;0;3;0;3201;0;0;0;0;4;0;3345;0;0;0;0;5;0;4765;0;0;0;0;0;0;6;0;8363;0;0;0;0;0;0;7;0;6200;0;0;0;0;8;0;6143;0;0;0;0;9;0;3311;0;0;0;0
06.01.19;22:55:00;1;431;11191;0;2;0;4720;0;0;0;0;3;0;3201;0;0;0;0;4;0;3345;0;0;0;0;5;0;4765;2;0;0;0;0;0;6;0;8363;2;0;0;0;0;0;7;0;6200;0;0;0;0;8;0;6143;0;0;0;0;9;0;3311;0;0;0;0
06.01.19;22:50:00;1;600;11154;0;2;0;4720;0;0;0;0;3;0;3201;0;0;0;0;4;0;3345;0;0;0;0;5;0;4765;2;0;0;0;0;0;6;0;8363;2;0;0;0;0;0;7;0;6200;0;0;0;0;8;0;6143;0;0;0;0;9;0;3311;0;0;0;0
06.01.19;22:45:00;1;427;11092;0;2;0;4720;0;0;0;0;3;0;3201;0;0;0;0;4;0;3345;0;0;0;0;5;0;4765;2;0;0;0;0;0;6;0;8363;2;0;0;0;0;0;7;0;6200;0;0;0;0;8;0;6143;0;0;0;0;9;0;3311;0;0;0;0
06.01.19;22:40:00;1;430;11057;0;2;0;4720;0;0;0;0;3;0;3201;0;0;0;0;4;0;3345;0;0;0;0;5;0;4765;2;0;0;0;0;0;6;0;8363;2;0;0;0;0;0;7;0;6200;0;0;0;0;8;0;6143;0;0;0;0;9;0;3311;0;0;0;0
06.01.19;22:35:00;1;427;11021;0;2;0;4720;0;0;0;0;3;0;3201;0;0;0;0;4;0;3345;0;0;0;0;5;0;4765;2;0;0;0;0;0;6;0;8363;2;0;0;0;0;0;7;0;6200;0;0;0;0;8;0;6143;0;0;0;0;9;0;3311;0;0;0;0
06.01.19;22:30:00;1;469;10984;0;2;0;4720;0;0;0;0;3;0;3201;0;0;0;0;4;0;3345;0;0;0;0;5;0;4765;2;0;0;0;0;0;6;0;8363;2;0;0;0;0;0;7;0;6200;0;0;0;0;8;0;6143;0;0;0;0;9;0;3311;0;0;0;0
06.01.19;22:25:00;1;1202;10945;0;2;0;4720;0;0;0;0;3;0;3201;0;0;0;0;4;0;3345;0;0;0;0;5;0;4765;2;0;0;0;0;0;6;0;8363;2;0;0;0;0;0;7;0;6200;0;0;0;0;8;0;6143;0;0;0;0;9;0;3311;0;0;0;0
06.01.19;22:20:00;1;454;10853;0;2;0;4720;0;0;0;0;3;0;3201;0;0;0;0;4;0;3345;0;0;0;0;5;0;4765;2;0;0;0;0;0;6;0;8363;2;0;0;0;0;0;7;0;6200;0;0;0;0;8;0;6143;0;0;0;0;9;0;3311;0;0;0;0
06.01.19;22:15:00;1;824;10815;0;2;0;4720;0;0;0;0;3;0;3201;0;0;0;0;4;0;3345;0;0;0;0;5;0;4765;2;0;0;0;0;0;6;0;8363;2;0;0;0;0;0;7;0;6200;0;0;0;0;8;0;6143;0;0;0;0;9;0;3311;0;0;0;0
06.01.19;22:10:00;1;417;10752;0;2;0;4720;0;0;0;0;3;0;3201;0;0;0;0;4;0;3345;0;0;0;0;5;0;4765;2;0;0;0;0;0;6;0;8363;2;0;0;0;0;0;7;0;6200;0;0;0;0;8;0;6143;0;0;0;0;9;0;3311;0;0;0;0
06.01.19;22:05:00;1;416;10717;0;2;0;4720;0;0;0;0;3;0;3201;0;0;0;0;4;0;3345;0;0;0;0;5;0;4765;2;0;0;0;0;0;6;0;8363;2;0;0;0;0;0;7;0;6200;0;0;0;0;8;0;6143;0;0;0;0;9;0;3311;0;0;0;0
06.01.19;22:00:00;1;428;10682;0;2;0;4720;0;0;0;0;3;0;3201;0;0;0;0;4;0;3345;0;0;0;0;5;0;4765;2;0;0;0;0;0;6;0;8363;2;0;0;0;0;0;7;0;6200;0;0;0;0;8;0;6143;0;0;0;0;9;0;3311;0;0;0;0
06.01.19;21:55:00;1;444;10646;0;2;0;4720;0;0;0;0;3;0;3201;0;0;0;0;4;0;3345;0;0;0;0;5;0;4765;2;0;0;0;0;0;6;0;8363;2;0;0;0;0;0;7;0;6200;0;0;0;0;8;0;6143;0;0;0;0;9;0;3311;0;0;0;0
06.01.19;21:50:00;1;516;10608;0;2;0;4720;0;0;0;0;3;0;3201;0;0;0;0;4;0;3345;0;0;0;0;5;0;4765;2;0;0;0;0;0;6;0;8363;2;0;0;0;0;0;7;0;6200;0;0;0;0;8;0;6143;0;0;0;0;9;0;3311;0;0;0;0
06.01.19;21:45:00;1;524;10565;0;2;0;4720;0;0;0;0;3;0;3201;0;0;0;0;4;0;3345;0;0;0;0;5;0;4765;2;0;0;0;0;0;6;0;8363;2;0;0;0;0;0;7;0;6200;0;0;0;0;8;0;6143;0;0;0;0;9;0;3311;0;0;0;0
06.01.19;21:40:00;1;873;10506;0;2;0;4720;0;0;0;0;3;0;3201;0;0;0;0;4;0;3345;0;0;0;0;5;0;4765;2;0;0;0;0;0;6;0;8363;2;0;0;0;0;0;7;0;6200;0;0;0;0;8;0;6143;0;0;0;0;9;0;3311;0;0;0;0
06.01.19;21:35:00;1;516;10452;0;2;0;4720;0;0;0;0;3;0;3201;0;0;0;0;4;0;3345;0;0;0;0;5;0;4765;2;0;0;0;0;0;6;0;8363;2;0;0;0;0;0;7;0;6200;0;0;0;0;8;0;6143;0;0;0;0;9;0;3311;0;0;0;0
06.01.19;21:30:00;1;800;10409;0;2;0;4720;0;0;0;0;3;0;3201;0;0;0;0;4;0;3345;0;0;0;0;5;0;4765;2;0;0;0;0;0;6;0;8363;2;0;0;0;0;0;7;0;6200;0;0;0;0;8;0;6143;0;0;0;0;9;0;3311;0;0;0;0
06.01.19;21:25:00;1;2442;10306;0;2;0;4720;0;0;0;0;3;0;3201;0;0;0;0;4;0;3345;0;0;0;0;5;0;4765;2;0;0;0;0;0;6;0;8363;2;0;0;0;0;0;7;0;6200;0;0;0;0;8;0;6143;0;0;0;0;9;0;3311;0;0;0;0
06.01.19;21:20:00;1;2458;10103;0;2;0;4720;0;0;0;0;3;0;3201;0;0;0;0;4;0;3345;0;0;0;0;5;0;4765;2;0;0;0;0;0;6;0;8363;2;0;0;0;0;0;7;0;6200;0;0;0;0;8;0;6143;0;0;0;0;9;0;3311;0;0;0;0
06.01.19;21:15:00;1;2406;9897;0;2;0;4720;0;0;0;0;3;0;3201;0;0;0;0;4;0;3345;0;0;0;0;5;0;4765;2;0;0;0;0;0;6;0;8363;2;0;0;0;0;0;7;0;6200;0;0;0;0;8;0;6143;0;0;0;0;9;0;3311;0;0;0;0
06.01.19;21:10:00;1;1224;9697;0;2;0;4720;0;0;0;0;3;0;3201;0;0;0;0;4;0;3345;0;0;0;0;5;0;4765;2;0;0;0;0;0;6;0;8363;2;0;0;0;0;0;7;0;6200;0;0;0;0;8;0;6143;0;0;0;0;9;0;3311;0;0;0;0
06.01.19;21:05:00;1;1855;9582;0;2;0;4720;0;0;0;0;3;0;3201;0;0;0;0;4;0;3345;0;0;0;0;5;0;4765;2;0;0;0;0;0;6;0;8363;2;0;0;0;0;0;7;0;6200;0;0;0;0;8;0;6143;0;0;0;0;9;0;3311;0;0;0;0
06.01.19;21:00:00;1;464;9475;0;2;0;4720;0;0;0;0;3;0;3201;0;0;0;0;4;0;3345;0;0;0;0;5;0;4765;2;0;0;0;0;0;6;0;8363;2;0;0;0;0;0;7;0;6200;0;0;0;0;8;0;6143;0;0;0;0;9;0;3311;0;0;0;0
06.01.19;20:55:00;1;490;9437;0;2;0;4720;0;0;0;0;3;0;3201;0;0;0;0;4;0;3345;0;0;0;0;5;0;4765;2;0;0;0;0;0;6;0;8363;2;0;0;0;0;0;7;0;6200;0;0;0;0;8;0;6143;0;0;0;0;9;0;3311;0;0;0;0
06.01.19;20:50:00;1;494;9396;0;2;0;4720;0;0;0;0;3;0;3201;0;0;0;0;4;0;3345;0;0;0;0;5;0;4765;2;0;0;0;0;0;6;0;8363;2;0;0;0;0;0;7;0;6200;0;0;0;0;8;0;6143;0;0;0;0;9;0;3311;0;0;0;0
06.01.19;20:45:00;1;2347;9337;0;2;0;4720;0;0;0;0;3;0;3201;0;0;0;0;4;0;3345;0;0;0;0;5;0;4765;2;0;0;0;0;0;6;0;8363;2;0;0;0;0;0;7;0;6200;0;0;0;0;8;0;6143;0;0;0;0;9;0;3311;0;0;0;0
06.01.19;20:40:00;1;968;9140;0;2;0;4720;0;0;0;0;3;0;3201;0;0;0;0;4;0;3345;0;0;0;0;5;0;4765;2;0;0;0;0;0;6;0;8363;2;0;0;0;0;0;7;0;6200;0;0;0;0;8;0;6143;0;0;0;0;9;0;3311;0;0;0;0
06.01.19;20:35:00;1;2115;9090;0;2;0;4720;0;0;0;0;3;0;3201;0;0;0;0;4;0;3345;0;0;0;0;5;0;4765;2;0;0;0;0;0;6;0;8363;2;0;0;0;0;0;7;0;6200;0;0;0;0;8;0;6143;0;0;0;0;9;0;3311;0;0;0;0
06.01.19;20:30:00;1;1188;8914;0;2;0;4720;0;0;0;0;3;0;3201;0;0;0;0;4;0;3345;0;0;0;0;5;0;4765;2;0;0;0;0;0;6;0;8363;2;0;0;0;0;0;7;0;6200;0;0;0;0;8;0;6143;0;0;0;0;9;0;3311;0;0;0;0
06.01.19;20:25:00;1;2436;8790;0;2;0;4720;0;0;0;0;3;0;3201;0;0;0;0;4;0;3345;0;0;0;0;5;0;4765;2;0;0;0;0;0;6;0;8363;2;0;0;0;0;0;7;0;6200;0;0;0;0;8;0;6143;0;0;0;0;9;0;3311;0;0;0;0
06.01.19;20:20:00;1;2443;8587;0;2;0;4720;0;0;0;0;3;0;3201;0;0;0;0;4;0;3345;0;0;0;0;5;0;4765;2;0;0;0;0;0;6;0;8363;2;0;0;0;0;0;7;0;6200;0;0;0;0;8;0;6143;0;0;0;0;9;0;3311;0;0;0;0
06.01.19;20:15:00;1;481;8391;0;2;0;4720;0;0;0;0;3;0;3201;0;0;0;0;4;0;3345;0;0;0;0;5;0;4765;2;0;0;0;0;0;6;0;8363;2;0;0;0;0;0;7;0;6200;0;0;0;0;8;0;6143;0;0;0;0;9;0;3311;0;0;0;0
06.01.19;20:10:00;1;326;8360;0;2;0;4720;0;0;0;0;3;0;3201;0;0;0;0;4;0;3345;0;0;0;0;5;0;4765;2;0;0;0;0;0;6;0;8363;2;0;0;0;0;0;7;0;6200;0;0;0;0;8;0;6143;0;0;0;0;9;0;3311;0;0;0;0
06.01.19;20:05:00;1;525;8333;0;2;0;4720;0;0;0;0;3;0;3201;0;0;0;0;4;0;3345;0;0;0;0;5;0;4765;2;0;0;0;0;0;6;0;8363;2;0;0;0;0;0;7;0;6200;0;0;0;0;8;0;6143;0;0;0;0;9;0;3311;0;0;0;0
06.01.19;20:00:00;1;657;8281;0;2;0;4720;0;0;0;0;3;0;3201;0;0;0;0;4;0;3345;0;0;0;0;5;0;4765;2;0;0;0;0;0;6;0;8363;2;0;0;0;0;0;7;0;6200;0;0;0;0;8;0;6143;0;0;0;0;9;0;3311;0;0;0;0
06.01.19;19:55:00;1;342;8253;0;2;0;4720;0;0;0;0;3;0;3201;0;0;0;0;4;0;3345;0;0;0;0;5;0;4765;2;0;0;0;0;0;6;0;8363;2;0;0;0;0;0;7;0;6200;0;0;0;0;8;0;6143;0;0;0;0;9;0;3311;0;0;0;0
06.01.19;19:50:00;1;818;8225;0;2;0;4720;0;0;0;0;3;0;3201;0;0;0;0;4;0;3345;0;0;0;0;5;0;4765;2;0;0;0;0;0;6;0;8363;2;0;0;0;0;0;7;0;6200;0;0;0;0;8;0;6143;0;0;0;0;9;0;3311;0;0;0;0
06.01.19;19:45:00;1;2029;8124;0;2;0;4720;0;0;0;0;3;0;3201;0;0;0;0;4;0;3345;0;0;0;0;5;0;4765;2;0;0;0;0;0;6;0;8363;2;0;0;0;0;0;7;0;6200;0;0;0;0;8;0;6143;0;0;0;0;9;0;3311;0;0;0;0
06.01.19;19:40:00;1;345;7963;0;2;0;4720;0;0;0;0;3;0;3201;0;0;0;0;4;0;3345;0;0;0;0;5;0;4765;2;0;0;0;0;0;6;0;8363;2;0;0;0;0;0;7;0;6200;0;0;0;0;8;0;6143;0;0;0;0;9;0;3311;0;0;0;0
06.01.19;19:35:00;1;419;7933;0;2;0;4720;0;0;0;0;3;0;3201;0;0;0;0;4;0;3345;0;0;0;0;5;0;4765;2;0;0;0;0;0;6;0;8363;2;0;0;0;0;0;7;0;6200;0;0;0;0;8;0;6143;0;0;0;0;9;0;3311;0;0;0;0
06.01.19;19:30:00;1;567;7898;0;2;0;4720;0;0;0;0;3;0;3201;0;0;0;0;4;0;3345;0;0;0;0;5;0;4765;2;0;0;0;0;0;6;0;8363;2;0;0;0;0;0;7;0;6200;0;0;0;0;8;0;6143;0;0;0;0;9;0;3311;0;0;0;0
06.01.19;19:25:00;1;416;7839;0;2;0;4720;0;0;0;0;3;0;3201;0;0;0;0;4;0;3345;0;0;0;0;5;0;4765;2;0;0;0;0;0;6;0;8363;2;0;0;0;0;0;7;0;6200;0;0;0;0;8;0;6143;0;0;0;0;9;0;3311;0;0;0;0
06.01.19;19:20:00;1;423;7804;0;2;0;4720;0;0;0;0;3;0;3201;0;0;0;0;4;0;3345;0;0;0;0;5;0;4765;2;0;0;0;0;0;6;0;8363;2;0;0;0;0;0;7;0;6200;0;0;0;0;8;0;6143;0;0;0;0;9;0;3311;0;0;0;0
06.01.19;19:15:00;1;422;7769;0;2;0;4720;0;0;0;0;3;0;3201;0;0;0;0;4;0;3345;0;0;0;0;5;0;4765;2;0;0;0;0;0;6;0;8363;2;0;0;0;0;0;7;0;6200;0;0;0;0;8;0;6143;0;0;0;0;9;0;3311;0;0;0;0
06.01.19;19:10:00;1;392;7734;0;2;0;4720;0;0;0;0;3;0;3201;0;0;0;0;4;0;3345;0;0;0;0;5;0;4765;2;0;0;0;0;0;6;0;8363;2;0;0;0;0;0;7;0;6200;0;0;0;0;8;0;6143;0;0;0;0;9;0;3311;0;0;0;0
06.01.19;19:05:00;1;400;7701;0;2;0;4720;0;0;0;0;3;0;3201;0;0;0;0;4;0;3345;0;0;0;0;5;0;4765;2;0;0;0;0;0;6;0;8363;2;0;0;0;0;0;7;0;6200;0;0;0;0;8;0;6143;0;0;0;0;9;0;3311;0;0;0;0
06.01.19;19:00:00;1;442;7669;0;2;0;4720;0;0;0;0;3;0;3201;0;0;0;0;4;0;3345;0;0;0;0;5;0;4765;2;0;0;0;0;0;6;0;8363;2;0;0;0;0;0;7;0;6200;0;0;0;0;8;0;6143;0;0;0;0;9;0;3311;0;0;0;0
06.01.19;18:55:00;1;687;7632;0;2;0;4720;0;0;0;0;3;0;3201;0;0;0;0;4;0;3345;0;0;0;0;5;0;4765;2;0;0;0;0;0;6;0;8363;2;0;0;0;0;0;7;0;6200;0;0;0;0;8;0;6143;0;0;0;0;9;0;3311;0;0;0;0
06.01.19;18:50:00;1;472;7566;0;2;0;4720;0;0;0;0;3;0;3201;0;0;0;0;4;0;3345;0;0;0;0;5;0;4765;2;0;0;0;0;0;6;0;8363;2;0;0;0;0;0;7;0;6200;0;0;0;0;8;0;6143;0;0;0;0;9;0;3311;0;0;0;0
06.01.19;18:45:00;1;470;7527;0;2;0;4720;0;0;0;0;3;0;3201;0;0;0;0;4;0;3345;0;0;0;0;5;0;4765;2;0;0;0;0;0;6;0;8363;2;0;0;0;0;0;7;0;6200;0;0;0;0;8;0;6143;0;0;0;0;9;0;3311;0;0;0;0
06.01.19;18:40:00;1;473;7488;0;2;0;4720;0;0;0;0;3;0;3201;0;0;0;0;4;0;3345;0;0;0;0;5;0;4765;2;0;0;0;0;0;6;0;8363;2;0;0;0;0;0;7;0;6200;0;0;0;0;8;0;6143;0;0;0;0;9;0;3311;0;0;0;0
06.01.19;18:35:00;1;477;7448;0;2;0;4720;0;0;0;0;3;0;3201;0;0;0;0;4;0;3345;0;0;0;0;5;0;4765;2;0;0;0;0;0;6;0;8363;2;0;0;0;0;0;7;0;6200;0;0;0;0;8;0;6143;0;0;0;0;9;0;3311;0;0;0;0
06.01.19;18:30:00;1;496;7407;0;2;0;4720;0;0;0;0;3;0;3201;0;0;0;0;4;0;3345;0;0;0;0;5;0;4765;2;0;0;0;0;0;6;0;8363;2;0;0;0;0;0;7;0;6200;0;0;0;0;8;0;6143;0;0;0;0;9;0;3311;0;0;0;0
06.01.19;18:25:00;1;530;7366;0;2;0;4720;0;0;0;0;3;0;3201;0;0;0;0;4;0;3345;0;0;0;0;5;0;4765;2;0;0;0;0;0;6;0;8363;2;0;0;0;0;0;7;0;6200;0;0;0;0;8;0;6143;0;0;0;0;9;0;3311;0;0;0;0
06.01.19;18:20:00;1;530;7322;0;2;0;4720;0;0;0;0;3;0;3201;0;0;0;0;4;0;3345;0;0;0;0;5;0;4765;2;0;0;0;0;0;6;0;8363;2;0;0;0;0;0;7;0;6200;0;0;0;0;8;0;6143;0;0;0;0;9;0;3311;0;0;0;0
06.01.19;18:15:00;1;745;7278;0;2;0;4720;0;0;0;0;3;0;3201;0;0;0;0;4;0;3345;0;0;0;0;5;0;4765;2;0;0;0;0;0;6;0;8363;2;0;0;0;0;0;7;0;6200;0;0;0;0;8;0;6143;0;0;0;0;9;0;3311;0;0;0;0
06.01.19;18:10:00;1;487;7205;0;2;0;4720;0;0;0;0;3;0;3201;0;0;0;0;4;0;3345;0;0;0;0;5;0;4765;2;0;0;0;0;0;6;0;8363;2;0;0;0;0;0;7;0;6200;0;0;0;0;8;0;6143;0;0;0;0;9;0;3311;0;0;0;0
06.01.19;18:05:00;1;479;7164;0;2;0;4720;0;0;0;0;3;0;3201;0;0;0;0;4;0;3345;0;0;0;0;5;0;4765;2;0;0;0;0;0;6;0;8363;2;0;0;0;0;0;7;0;6200;0;0;0;0;8;0;6143;0;0;0;0;9;0;3311;0;0;0;0
06.01.19;18:00:00;1;470;7125;0;2;0;4720;0;0;0;0;3;0;3201;0;0;0;0;4;0;3345;0;0;0;0;5;0;4765;2;0;0;0;0;0;6;0;8363;2;0;0;0;0;0;7;0;6200;0;0;0;0;8;0;6143;0;0;0;0;9;0;3311;0;0;0;0
06.01.19;17:55:00;1;470;7085;0;2;0;4720;0;0;0;0;3;0;3201;0;0;0;0;4;0;3345;0;0;0;0;5;0;4765;2;0;0;0;0;0;6;0;8363;2;0;0;0;0;0;7;0;6200;0;0;0;0;8;0;6143;0;0;0;0;9;0;3311;0;0;0;0
06.01.19;17:50:00;1;489;7046;0;2;0;4720;0;0;0;0;3;0;3201;0;0;0;0;4;0;3345;0;0;0;0;5;0;4765;2;0;0;0;0;0;6;0;8363;2;0;0;0;0;0;7;0;6200;0;0;0;0;8;0;6143;0;0;0;0;9;0;3311;0;0;0;0
06.01.19;17:45:00;1;450;7005;0;2;0;4720;0;0;0;0;3;0;3201;0;0;0;0;4;0;3345;0;0;0;0;5;0;4765;2;0;0;0;0;0;6;0;8363;2;0;0;0;0;0;7;0;6200;0;0;0;0;8;0;6143;0;0;0;0;9;0;3311;0;0;0;0
06.01.19;17:40:00;1;787;6965;0;2;0;4720;0;0;0;0;3;0;3201;0;0;0;0;4;0;3345;0;0;0;0;5;0;4765;2;0;0;0;0;0;6;0;8363;2;0;0;0;0;0;7;0;6200;0;0;0;0;8;0;6143;0;0;0;0;9;0;3311;0;0;0;0
06.01.19;17:35:00;1;436;6905;0;2;0;4720;0;0;0;0;3;0;3201;0;0;0;0;4;0;3345;0;0;0;0;5;0;4765;2;0;0;0;0;0;6;0;8363;2;0;0;0;0;0;7;0;6200;0;0;0;0;8;0;6143;0;0;0;0;9;0;3311;0;0;0;0
06.01.19;17:30:00;1;431;6868;0;2;0;4720;0;0;0;0;3;0;3201;0;0;0;0;4;0;3345;0;0;0;0;5;0;4765;2;0;0;0;0;0;6;0;8363;2;0;0;0;0;0;7;0;6200;0;0;0;0;8;0;6143;0;0;0;0;9;0;3311;0;0;0;0
06.01.19;17:25:00;1;542;6832;0;2;0;4720;0;0;0;0;3;0;3201;0;0;0;0;4;0;3345;0;0;0;0;5;0;4765;2;0;0;0;0;0;6;0;8363;2;0;0;0;0;0;7;0;6200;0;0;0;0;8;0;6143;0;0;0;0;9;0;3311;0;0;0;0
06.01.19;17:20:00;1;591;6786;0;2;0;4720;0;0;0;0;3;0;3201;0;0;0;0;4;0;3345;0;0;0;0;5;0;4765;2;0;0;0;0;0;6;0;8363;2;0;0;0;0;0;7;0;6200;0;0;0;0;8;0;6143;0;0;0;0;9;0;3311;0;0;0;0
06.01.19;17:15:00;1;590;6736;0;2;0;4720;0;0;0;0;3;0;3201;0;0;0;0;4;0;3345;0;0;0;0;5;0;4765;2;0;0;0;0;0;6;0;8363;2;0;0;0;0;0;7;0;6200;0;0;0;0;8;0;6143;0;0;0;0;9;0;3311;0;0;0;0
06.01.19;17:10:00;1;564;6687;0;2;0;4720;0;0;0;0;3;0;3201;0;0;0;0;4;0;3345;0;0;0;0;5;0;4765;2;0;0;0;0;0;6;0;8363;2;0;0;0;0;0;7;0;6200;0;0;0;0;8;0;6143;0;0;0;0;9;0;3311;0;0;0;0
06.01.19;17:05:00;1;1011;6640;0;2;0;4720;0;0;0;0;3;0;3201;0;0;0;0;4;0;3345;0;0;0;0;5;0;4765;2;0;0;0;0;0;6;0;8363;2;0;0;0;0;0;7;0;6200;0;0;0;0;8;0;6143;0;0;0;0;9;0;3311;0;0;0;0
06.01.19;17:00:00;1;554;6568;0;2;0;4720;0;0;0;0;3;0;3201;0;0;0;0;4;0;3345;0;0;0;0;5;0;4765;2;0;0;0;0;0;6;0;8363;2;0;0;0;0;0;7;0;6200;0;0;0;0;8;0;6143;0;0;0;0;9;0;3311;0;0;0;0
06.01.19;16:55:00;1;555;6522;0;2;0;4720;0;0;0;0;3;0;3201;0;0;0;0;4;0;3345;0;0;0;0;5;0;4765;2;0;0;0;0;0;6;0;8363;2;0;0;0;0;0;7;0;6200;0;0;0;0;8;0;6143;0;0;0;0;9;0;3311;0;0;0;0
06.01.19;16:50:00;1;498;6475;0;2;0;4720;0;0;0;0;3;0;3201;0;0;0;0;4;0;3345;0;0;0;0;5;0;4765;2;0;0;0;0;0;6;0;8363;2;0;0;0;0;0;7;0;6200;0;0;0;0;8;0;6143;0;0;0;0;9;0;3311;0;0;0;0
06.01.19;16:45:00;1;470;6434;0;2;0;4720;0;0;175;5;3;0;3201;6;0;284;11;4;0;3345;0;0;0;0;5;0;4765;2;0;0;0;0;0;6;0;8363;2;0;0;0;0;0;7;0;6200;0;0;0;0;8;0;6143;0;0;0;0;9;0;3311;0;0;0;0
06.01.19;16:40:00;1;444;6395;0;2;0;4720;6;0;303;8;3;0;3201;6;0;352;11;4;0;3345;2;0;82;7;5;0;4765;2;0;0;0;0;0;6;0;8363;1;0;0;0;0;0;7;0;6200;0;0;0;0;8;0;6143;0;0;0;0;9;0;3311;0;0;0;0
06.01.19;16:35:00;1;434;6358;0;2;0;4720;6;0;337;8;3;0;3201;6;1;399;11;4;0;3345;1;0;115;7;5;0;4765;2;0;0;182;179;14;6;0;8363;2;5;1;144;330;14;7;0;6200;0;0;0;0;8;0;6143;0;0;50;2;9;0;3311;0;0;210;6
06.01.19;16:30:00;1;1142;6322;0;2;0;4720;6;0;351;8;3;0;3201;6;1;418;12;4;0;3345;1;0;133;7;5;0;4765;1;0;0;316;339;18;6;0;8363;23;10;2;180;488;18;7;0;6200;6;0;267;12;8;0;6143;6;0;272;11;9;0;3311;6;0;294;8
06.01.19;16:25:00;1;458;6260;0;2;0;4720;6;0;369;8;3;0;3201;6;2;443;12;4;0;3345;1;0;160;8;5;0;4765;23;0;0;395;464;19;6;0;8363;23;6;2;485;247;18;7;0;6200;6;0;313;12;8;0;6143;6;0;319;11;9;0;3311;6;0;335;8
06.01.19;16:20:00;1;485;6221;0;2;0;4720;6;0;388;8;3;0;3201;6;0;479;12;4;0;3345;1;0;193;8;5;0;4765;26;0;0;417;660;19;6;0;8363;23;8;1;248;502;19;7;0;6200;6;0;376;12;8;0;6143;6;0;383;12;9;0;3311;6;0;409;8
06.01.19;16:15:00;1;512;6180;0;2;0;4720;6;0;397;8;3;2;3201;3;7;449;12;4;0;3345;1;0;210;8;5;6;4765;4;0;0;411;656;19;6;0;8363;23;9;0;328;577;19;7;0;6200;6;0;401;12;8;0;6143;6;0;395;12;9;0;3311;6;0;434;9
06.01.19;16:10:00;1;650;6137;0;2;0;4720;6;0;403;8;3;1;3201;6;3;492;12;4;0;3345;1;0;220;9;5;7;4765;4;0;2;415;665;19;6;0;8363;8;8;1;448;583;19;7;0;6200;6;1;422;12;8;0;6143;6;1;426;12;9;0;3311;4;0;451;9
06.01.19;16:05:00;1;601;6081;0;2;0;4720;6;0;406;9;3;2;3201;6;3;490;12;4;0;3345;1;0;225;9;5;9;4764;4;0;1;417;669;19;6;0;8363;23;9;0;225;586;20;7;0;6200;6;2;420;13;8;0;6143;6;1;430;12;9;1;3311;3;2;438;9
06.01.19;16:00:00;1;588;6031;0;2;0;4720;6;0;412;9;3;2;3200;6;4;501;12;4;0;3345;3;0;213;9;5;8;4763;4;0;3;422;681;20;6;7;8363;23;6;5;506;557;21;7;0;6200;6;1;437;13;8;0;6143;6;3;426;12;9;0;3311;6;1;481;9
06.01.19;15:55:00;1;715;5974;0;2;2;4720;6;8;411;9;3;0;3200;6;6;514;12;4;0;3345;3;0;207;9;5;76;4763;4;4;31;379;614;21;6;64;8362;4;31;29;410;391;22;7;0;6200;6;0;481;13;8;0;6143;6;0;484;12;9;2;3311;6;4;497;9
06.01.19;15:50:00;1;431;5920;0;2;22;4720;6;38;399;9;3;2;3200;6;8;533;12;4;8;3345;3;8;199;9;5;100;4756;4;11;58;379;614;21;6;87;8357;4;42;35;409;391;22;7;5;6200;3;13;462;13;8;3;6143;4;14;461;13;9;1;3311;6;4;532;9
06.01.19;15:45:00;1;443;5884;0;2;5;4718;6;11;415;9;3;3;3200;3;8;507;13;4;0;3344;3;0;235;10;5;60;4748;4;3;29;396;648;20;6;69;8349;4;36;35;409;391;22;7;0;6200;6;5;465;13;8;2;6142;3;5;470;13;9;0;3311;6;4;517;9
06.01.19;15:40:00;1;474;5846;0;2;3;4718;6;8;412;10;3;0;3200;6;5;516;13;4;0;3344;3;0;230;10;5;33;4743;1;0;12;415;688;20;6;59;8343;4;19;18;409;391;22;7;2;6200;6;4;462;14;8;2;6142;6;4;459;13;9;1;3311;6;2;511;9
06.01.19;15:35:00;1;398;5808;0;2;4;4718;4;10;414;10;3;2;3200;6;8;518;13;4;0;3344;3;0;199;10;5;78;4740;4;2;26;385;654;21;6;67;8338;4;39;37;410;391;22;7;2;6199;6;5;469;14;8;0;6142;6;5;469;13;9;2;3311;3;4;510;10
06.01.19;15:30:00;1;343;5774;0;2;63;4717;4;94;366;10;3;5;3199;6;10;539;13;4;21;3344;3;22;198;10;5;119;4733;4;13;60;386;654;21;6;107;8332;4;67;61;409;391;22;7;34;6199;6;64;413;14;8;26;6142;6;54;439;14;9;3;3310;6;8;546;10
06.01.19;15:25:00;1;238;5748;0;2;75;4712;4;108;384;11;3;7;3199;6;13;542;13;4;38;3342;3;40;198;10;5;139;4723;4;15;77;386;655;21;6;123;8323;4;72;66;409;391;22;7;44;6197;4;89;438;14;8;44;6140;4;88;437;14;9;5;3310;6;10;549;10
06.01.19;15:20:00;1;262;5728;0;2;92;4706;4;125;368;11;3;8;3198;6;13;551;13;4;48;3339;3;50;197;10;5;152;4711;4;18;84;386;654;21;6;136;8313;4;69;64;409;391;22;7;63;6193;4;99;449;14;8;70;6136;4;105;438;14;9;15;3310;6;20;532;10
06.01.19;15:15:00;1;556;5706;0;2;91;4698;4;123;356;11;3;10;3198;4;16;546;14;4;39;3335;3;40;197;11;5;149;4699;4;17;85;386;655;21;6;135;8302;4;76;75;409;391;22;7;67;6188;4;102;411;14;8;68;6130;4;102;416;14;9;6;3309;6;12;554;10
06.01.19;15:10:00;1;316;5658;0;2;112;4690;4;148;381;11;3;63;3197;4;101;463;14;4;62;3332;3;64;197;11;5;174;4686;4;23;105;386;655;21;6;160;8290;4;96;92;409;391;22;7;105;6182;4;132;416;15;8;97;6125;4;133;420;14;9;7;3308;6;11;564;11
06.01.19;15:05:00;1;285;5631;0;2;125;4681;4;161;384;11;3;70;3191;4;109;479;14;4;69;3327;3;72;198;11;5;183;4671;4;26;113;386;654;21;6;165;8277;4;82;79;409;391;22;7;105;6173;4;143;417;15;8;107;6117;4;149;448;14;9;11;3308;4;16;562;11
06.01.19;15:00:00;1;315;5607;0;2;153;4671;4;188;384;12;3;86;3185;4;127;483;14;4;87;3321;3;90;203;11;5;213;4656;4;34;132;386;654;21;6;205;8263;4;107;100;427;415;22;7;141;6165;4;174;453;15;8;135;6108;4;172;455;14;9;70;3306;4;101;488;12
06.01.19;14:55:00;1;458;5580;0;2;258;4658;4;298;390;12;3;149;3178;4;195;520;14;4;181;3313;5;188;214;11;5;314;4638;4;58;219;386;639;21;6;400;8245;4;196;207;573;559;22;7;271;6153;4;308;477;15;8;263;6096;4;303;471;14;9;142;3300;4;172;517;12
06.01.19;14:50:00;1;299;5543;0;2;378;4637;4;424;410;12;3;234;3166;4;280;513;15;4;281;3299;5;293;219;11;5;439;4611;4;92;315;386;641;21;6;576;8210;4;291;298;596;569;22;7;437;6131;4;481;488;15;8;431;6075;4;479;483;15;9;233;3289;4;270;520;12
06.01.19;14:45:00;1;345;5518;0;2;319;4605;4;363;402;12;3;195;3147;4;238;517;15;4;234;3275;5;243;219;11;5;390;4574;4;74;283;386;638;21;6;515;8162;4;253;254;588;572;22;7;345;6094;4;389;487;15;8;357;6039;4;396;479;15;9;189;3269;4;224;520;12
06.01.19;14:40:00;1;544;5489;0;2;275;4578;4;316;392;12;3;168;3130;4;209;513;15;4;197;3255;5;206;214;11;5;344;4543;4;62;247;386;614;21;6;461;8119;4;220;222;589;565;22;7;273;6065;4;319;481;15;8;277;6009;4;318;485;15;9;148;3253;4;180;525;12
06.01.19;14:35:00;1;1080;5452;0;2;396;4555;4;444;407;13;3;245;3116;4;294;517;15;4;302;3239;5;315;218;12;5;581;4513;4;203;354;315;647;21;6;637;8081;4;323;326;596;574;22;7;398;6042;4;447;476;15;8;406;5985;4;445;484;15;9;212;3241;4;247;524;12
06.01.19;14:30:00;1;221;5393;0;2;453;4523;4;503;394;13;3;282;3096;4;332;513;15;4;351;3214;5;366;219;12;5;695;4462;4;258;412;297;665;21;6;744;8027;4;353;347;599;579;22;7;452;6010;4;496;473;15;8;455;5953;4;497;473;15;9;239;3224;4;278;532;13
06.01.19;14:25:00;1;228;5373;0;2;553;4485;4;607;403;13;3;348;3073;4;402;523;15;4;430;3185;5;448;221;12;5;844;4403;4;312;494;300;670;21;6;904;7964;4;481;483;601;583;22;7;566;5972;4;611;479;15;8;567;5914;4;609;489;15;9;295;3203;4;335;530;13
06.01.19;14:20:00;1;266;5354;0;2;725;4440;4;785;411;13;3;460;3044;4;516;531;16;4;562;3150;5;585;223;12;5;1071;4331;4;390;634;302;685;21;6;1135;7887;4;572;561;611;585;22;7;793;5926;4;833;486;16;8;766;5868;4;819;483;15;9;397;3179;4;444;534;13
06.01.19;14:15:00;1;287;5332;0;2;760;4380;4;821;408;13;3;490;3006;4;549;522;16;4;586;3103;5;610;224;12;5;1088;4241;4;394;640;306;683;21;6;1169;7791;4;601;579;605;591;22;7;887;5861;4;941;485;16;8;860;5805;4;920;493;15;9;448;3147;4;498;535;13
06.01.19;14:10:00;1;305;5308;0;2;795;4316;4;854;400;14;3;513;2965;4;574;526;16;4;606;3054;5;631;222;12;5;1109;4150;4;407;658;307;686;21;6;1210;7694;4;612;610;613;582;22;7;929;5785;4;997;486;16;8;927;5732;4;979;486;15;9;480;3109;4;532;539;13
06.01.19;14:05:00;1;259;5282;0;2;686;4249;4;742;401;14;3;443;2922;4;498;520;16;4;520;3003;5;541;219;12;5;985;4058;4;351;586;303;682;21;6;1089;7594;4;572;556;609;587;22;7;785;5707;4;841;484;16;8;775;5654;4;827;483;15;9;397;3069;4;447;543;13
06.01.19;14:00:00;1;259;5260;0;2;717;4192;4;773;404;14;3;461;2885;4;517;517;16;4;547;2960;5;570;222;12;5;1026;3977;4;362;619;298;670;21;6;1150;7503;4;588;578;610;587;22;7;835;5642;4;901;479;16;8;826;5589;4;886;482;15;9;430;3035;4;479;538;14
06.01.19;13:55:00;1;258;5239;0;2;847;4133;4;908;402;14;3;546;2846;4;607;536;16;4;643;2914;5;670;225;12;5;1157;3891;4;405;704;297;677;21;6;1304;7408;4;668;651;610;583;22;7;1056;5573;4;1106;478;16;8;1013;5521;4;1083;474;16;9;536;3000;4;594;549;14
06.01.19;13:50:00;1;497;5211;0;2;989;4063;4;1055;406;14;3;642;2801;4;709;538;16;4;759;2861;5;791;223;12;5;1351;3793;4;469;829;295;682;21;6;1542;7297;4;811;786;616;587;22;7;1176;5485;4;1252;487;16;8;1170;5437;4;1243;489;16;9;623;2955;4;687;550;14
06.01.19;13:45:00;1;263;5170;0;2;832;3981;4;895;402;14;3;541;2748;4;601;525;16;4;649;2798;5;676;224;12;5;1159;3681;4;403;710;298;680;21;6;1342;7169;4;679;672;606;584;22;7;970;5387;4;1030;485;16;8;963;5340;4;1023;489;16;9;512;2903;4;563;539;14
06.01.19;13:40:00;1;283;5147;0;2;838;3910;4;902;406;14;3;546;2702;4;609;526;16;4;660;2744;5;687;221;12;5;1186;3585;4;402;735;297;664;21;6;1377;7059;4;723;698;612;592;22;7;927;5306;4;1004;485;16;8;942;5258;4;995;482;16;9;501;2860;4;551;538;14